User: anonymous   Login
Location: Antin
(43.3330°N, 0.2804°E)
Time: 16:24:09
(UTC+00:00)
Language:

SL-16 R/B - Orbit

View from above orbital plane
View from above orbital plane
View from above satellite
View from above satellite

Ground track
Ground track

The orbit data is extracted from the following two-line orbital elements,

1 31793U 07029B   22022.94104858 -.00000198  00000-0 -78332-4 0  9995
2 31793  70.9755  98.5502 0002062 263.1999 269.7630 14.14456571752371
Epoch (UTC): 22 January 2022 22:35:06
Eccentricity: 0.0002062
inclination: 70.9755°
perigee height: 842 km
apogee height: 845 km
right ascension of ascending node: 98.5502°
argument of perigee: 263.1999°
revolutions per day: 14.14456571
mean anomaly at epoch: 269.7630°
orbit number at epoch: 75237

The dashed part of the orbit path shows where the satellite is in the earth's shadow,  

DLR